Torna al catalogo

STARLINK-32722

AttivoComunicazioniVLEO
NORAD 62450·PAYLOAD·🇺🇸 United States

Lanciato Dec 29, 2024 da Vandenberg Space Force Base

Loading…

Prossimi Passaggi (prossime 24 ore)

TLE

AggiornatoSource: CelesTrak SupGP

Epoca: Sep 15, 2026, 03:00 UTC

1 62450C 24251U   26258.12548611  .00028693  00000+0  84821-3 0  2583
2 62450  53.1577 172.7519 0001366  80.3997 116.4271 15.34359098    11

Traccia STARLINK-32722 in tempo reale con AllMySat

Download on the App Store